カタログに戻る

STARLINK-11078

運用中通信VLEO
NORAD 58710·PAYLOAD·🇺🇸 United States

打ち上げ Jan 3, 2024 から Vandenberg Space Force Base

Loading…

次のパス (今後24時間)

TLE

最新Source: CelesTrak SupGP

元期: Sep 14, 2026, 22:22 UTC

1 58710C 24002F   26257.93243056  .00092472  00000+0  76142-3 0  2576
2 58710  53.1571  60.9516 0001134  70.0530 247.2459 15.69672667    15

AllMySatでSTARLINK-11078をリアルタイム追跡

Download on the App Store